Regional Weather Roundup
Issued by NWS Green Bay, WI

Home | Current Version | Previous Version | Text Only | Print | Product List | Glossary On
Versions: 1 2 3 4 5 6 7 8 9 10 11 12 13 14 15 16 17 18 19 20 21 22 23 24 25 26 27 28 29 30 31 32 33 34 35 36 37 38 39 40 41 42 43 44 45 46 47 48 49 50
000
ASUS43 KGRB 251011
RWRGRB

NORTH-CENTRAL AND NORTHEAST WISCONSIN REGIONAL WEATHER ROUNDUP
NATIONAL WEATHER SERVICE GREEN BAY WI
500 AM CDT SUN SEP 25 2016

WIZ005-009-010>012-018-019-251100-
NORTH CENTRAL WISCONSIN

CITY           SKY/WX    TMP DP  RH WIND       PRES   REMARKS
IRONWOOD       CLOUDY    61  57  87 SE7       30.00F
MANITOWISH WTR CLOUDY    58  57  96 SE12G17   30.04F
ARBOR VITAE    CLOUDY    59  55  85 SE12      30.06F
EAGLE RIVER    CLOUDY    57  51  79 S6        30.07F
LAND O LAKES   CLOUDY    57  52  84 SE7       30.09F
RHINELANDER    CLOUDY    57  55  93 SE7       30.08F
PHILLIPS       CLOUDY    60  58  92 SE8       30.03F
ANTIGO         CLOUDY    56  54  91 CALM      30.10F
TOMAHAWK       CLOUDY    56  53  88 SE5       30.06F
MERRILL        CLOUDY    57  55  95 SE7       30.07F
$$

WIZ013-073-251100-
NORTHEAST WISCONSIN

CITY           SKY/WX    TMP DP  RH WIND       PRES   REMARKS
IRON MOUNTAIN  CLOUDY    56  51  84 SE5       30.10F
MARINETTE      CLOUDY    62  56  80 S10       30.12F
OCONTO         CLOUDY    62  57  84 SE8       30.11F
$$

WIZ017-030-035>037-045-251100-
CENTRAL WISCONSIN

CITY           SKY/WX    TMP DP  RH WIND       PRES   REMARKS
MEDFORD        CLOUDY    58  58 100 SE8       30.03F
WAUSAU         MOCLDY    56  54  93 SE7       30.05F
MOSINEE        PTCLDY    54  54 100 E6        30.07F
MARSHFIELD     CLOUDY    59  56  89 SE8       30.04F
WISC RAPIDS    MOCLDY    59  58  96 SE6       30.05F
STEVENS POINT  CLOUDY    56  55  99 E5        30.06F
WAUPACA        CLOUDY    58  57  99 CALM      30.08F
SHAWANO        MOCLDY    60  56  87 SE3       30.10F
CLINTONVILLE   NOT AVBL
WAUTOMA        CLOUDY    57  56  96 E3        30.07F
$$

WIZ038-039-048-051-251100-
FOX VALLEY

CITY           SKY/WX    TMP DP  RH WIND       PRES   REMARKS
NWS GREEN BAY  PTCLDY    61  60  97 SE8       30.10F
APPLETON       CLOUDY    61  59  94 SE8       30.07F
OSHKOSH        PTCLDY    61  58  90 SE6       30.07F
FOND DU LAC    PTCLDY    62  60  93 SE8       30.08F
$$

WIZ022-050-052-251100-
EAST CENTRAL WISCONSIN

CITY           SKY/WX    TMP DP  RH WIND       PRES   REMARKS
EPHRAIM        CLOUDY    61  56  83 S7        30.13S
WASHINGTON ISL CLOUDY    61  54  77 S6        30.14R
STURGEON BAY   CLOUDY    62  56  80 SE12      30.13F
MANITOWOC      CLEAR     63  58  83 SE8       30.12F
SHEBOYGAN      MOCLDY    63  59  87 SE8       30.10F
$$

LMZ563-521-522-541>543-251100-
LAKESHORE

STATION/POSITION TIME  TEMP    WIND        PRES    VSBY  WAVE
                       AIR SEA DIR/SP/G                  HT/PER
                 (UTC) (F)     (DEG/KT/KT) (MB)    (MI)  (FT/S)
SHEBOYGAN LKSHOR 1000   64     150/ 14/ 15 1019.0F
KEWAUNEE LKSHORE 0900   64     150/ 11/ 14 1019.8F
NORTHPORT PIER   0900   63     150/ 13/ 16 1020.3F
N MID LAKE BUOY  0950   62 67  170/ 17/ 19 1020.3F         3/ 4
S GREEN BAY BUOY 1000   63 66  140/ 10/ 14 1019.1F
SISTER BAY LKSHO 0938   62     160/ 11/ 14   N/A
CHAMBERS ISLAND  0900   63     140/  5/ 10 1020.0S
MENOMINEE LKSHOR 0900   63     160/ 11/ 15 1019.4R
$$




USA.gov is the U.S. government's official web portal to all federal, state and local government web resources and services.